Regional Weather Roundup
Issued by NWS

Home | Current Version | Previous Version | Graphics & Text | Print | Product List | Glossary On
Versions: 1 2 3 4 5 6 7 8 9 10 11 12 13 14 15 16 17 18 19 20 21 22 23 24 25 26 27 28 29 30 31 32 33 34 35 36 37 38 39 40 41 42 43 44 45 46 47 48 49 50
000
ASUS43 KLMK 022210
RWRKY
KENTUCKY REGIONAL WEATHER ROUNDUP
NATIONAL WEATHER SERVICE LOUISVILLE KY
600 PM EDT SUN AUG 02 2015

NOTE "FAIR" INDICATES FEW OR NO CLOUDS BELOW 12,000 FEET
WITH NO SIGNIFICANT WEATHER AND/OR OBSTRUCTIONS TO VISIBILITY.

KYZ001>023-026-027-061>063-070>075-022300-
WESTERN AND SOUTH CENTRAL KENTUCKY

CITY           SKY/WX    TMP DP  RH WIND       PRES   REMARKS
PADUCAH        MOSUNNY   87  71  58 S5        29.91S HX  93
HENDERSON      SUNNY     88  70  55 S3        29.90F HX  92
OWENSBORO      SUNNY     88  65  46 W7        29.92F HX  90
HOPKINSVILLE   SUNNY     87  62  43 VRB2      29.93F
BOWLING GREEN  SUNNY     87  59  38 VRB3      29.94F
GLASGOW        SUNNY    N/A N/A N/A NE3       29.95S
$$

KYZ024-025-028>034-038-045-046-053-022300-
NORTH CENTRAL KENTUCKY

CITY           SKY/WX    TMP DP  RH WIND       PRES   REMARKS
LOUISVILLE/SDF MOSUNNY   89  57  33 W7        29.91F
LOUISVILLE/LOU SUNNY     88  59  37 SW7       29.92F
FORT KNOX      SUNNY     86  61  42 S6        29.92F
$$

KYZ035>037-039>044-047>052-055>060-089>105-022300-
NORTHEAST KENTUCKY

CITY           SKY/WX    TMP DP  RH WIND       PRES   REMARKS
LEXINGTON      SUNNY     86  57  37 W3        29.96F
COVINGTON      MOSUNNY   85  62  46 S9        29.93F
FRANKFORT      SUNNY     85  58  39 VRB5      29.94F
$$

KYZ054-064>069-076>088-106>120-022300-
SOUTHEAST KENTUCKY

CITY           SKY/WX    TMP DP  RH WIND       PRES   REMARKS
JACKSON        SUNNY     84  60  44 CALM      29.99F
LONDON         PTSUNNY   87  56  34 NE7       29.98S
SOMERSET       SUNNY     81  55  41 CALM      29.97S
MIDDLESBORO    SUNNY     87  58  37 S5        29.97S
MONTICELLO     CLEAR     88  63  43 CALM      29.99S
$$




USA.gov is the U.S. government's official web portal to all federal, state and local government web resources and services.